Location: Abraham Lincoln Continuation High School
(33.9711°N, 117.3662°W)
Time: 14:28:15
(UTC+00:00)

COSMO-SKYMED 1 - Pass Details

Date: 21 September 2020
Orbit: 621 x 623 km, 97.9° (Epoch: 28 October)

Event Time Altitude Azimuth Distance (km) Brightness Sun altitude
Rises 02:16:58 0° 3° (N) 2,907 6.0 -6.8°
Reaches altitude 10° 02:19:14 10° 357° (N) 1,997 5.3 -7.3°
Maximum altitude 02:23:20 42° 286° (WNW) 893 4.1 -8.1°
Drops below altitude 10° 02:27:24 10° 216° (SW) 1,983 5.6 -9.0°
Sets 02:29:39 0° 209° (SSW) 2,885 6.3 -9.4°
